User: anonymous   Login
Location: Unspecified
(41.5000°N, 0.0000°E)
Time: 07:42:58
(UTC+00:00)
Language:

S-56A Canister/Altair - Orbit

View from above orbital plane
View from above orbital plane
View from above satellite
View from above satellite

Ground track
Ground track

The orbit data is extracted from the following two-line orbital elements,

1    82U 61004B   19176.81843921 +.00000036 +00000-0 +66960-4 0  9991
2    82 038.8570 082.6114 1174660 157.5422 208.1317 12.26039275763911
Epoch (UTC): 25 June 2019 19:38:33
Eccentricity: 0.1174660
inclination: 38.8570°
perigee height: 633 km
apogee height: 2499 km
right ascension of ascending node: 82.6114°
argument of perigee: 157.5422°
revolutions per day: 12.26039275
mean anomaly at epoch: 208.1317°
orbit number at epoch: 76391

The dashed part of the orbit path shows where the satellite is in the earth's shadow,  

DLR